Weather History for Beatrice, NE

Change the Weather History Date:

Friday, November 15, 2013

  Actual Average Record
Temperature  
Mean Temperature 41 °F -  
Max Temperature 57 °F 53 °F 73 °F (1971)
Min Temperature 25 °F 29 °F 14 °F (1997)
Degree Days  
Heating Degree Days 24    
Moisture  
Dew Point 34 °F    
Average Humidity 74    
Maximum Humidity 94    
Minimum Humidity 45    
Precipitation  
Precipitation 0.00 in - - ()
Sea Level Pressure  
Sea Level Pressure 29.77 in    
Wind  
Wind Speed 5 mph (SSE)    
Max Wind Speed 17 mph    
Max Gust Speed 23 mph    
Visibility 10 miles    
Events      
Averages and records for this station are not official NWS values.
T = Trace of Precipitation, MM = Missing Value Source: NWS Daily Summary

Daily Weather History Graph

Daily Weather History Graph

Search for Another Location

Airport:

Trip Planner

Search our weather history database for the weather conditions in past years. The results will help you decide how hot, cold, wet, or windy it might be!

Date:

Astronomy

Nov. 15, 2013 Rise Set
Actual Time 7:13 AM CST 5:09 PM CST
Civil Twilight 6:43 AM CST 5:38 PM CST
Nautical Twilight 6:11 AM CST 6:11 PM CST
Astronomical Twilight 5:38 AM CST 6:43 PM CST
Moon 4:07 PM CST (11/15) 5:10 AM CST (11/15)
Length of Visible Light 10h 54m
Length of Day
9h 56m
Waxing Gibbous, 96% of the Moon is Illuminated
Nov 15
Waxing Gibbous
Nov 17
Full
Nov 25
Last Quarter
Dec 2
New
Dec 9
First Quarter

Hourly Weather History & Observations

Time (CST) Temp. Windchill Dew Point Humidity Pressure Visibility Wind Dir Wind Speed Gust Speed Precip Events Conditions
12:15 AM 31.6 °F - 27.5 °F 85% 29.91 in 10.0 mi Calm Calm - N/A   Clear
12:55 AM 29.8 °F - 26.2 °F 86% 29.90 in 10.0 mi Calm Calm - N/A   Clear
1:15 AM 28.6 °F - 25.3 °F 88% 29.90 in 10.0 mi Calm Calm - N/A   Clear
1:35 AM 28.2 °F - 25.2 °F 88% 29.90 in 10.0 mi Calm Calm - N/A   Clear
1:55 AM 28.0 °F 22.8 °F 25.2 °F 89% 29.89 in 10.0 mi SE 4.6 mph - N/A   Clear
2:15 AM 28.2 °F - 25.7 °F 90% 29.89 in 10.0 mi Calm Calm - N/A   Clear
2:35 AM 27.9 °F - 23.7 °F 84% 29.89 in 10.0 mi Calm Calm - N/A   Clear
2:55 AM 28.4 °F - 25.3 °F 88% 29.89 in 10.0 mi Calm Calm - N/A   Clear
3:15 AM 28.9 °F - 25.5 °F 87% 29.89 in 10.0 mi Calm Calm - N/A   Clear
3:35 AM 28.8 °F - 25.7 °F 88% 29.88 in 10.0 mi Calm Calm - N/A   Clear
3:55 AM 27.5 °F - 25.0 °F 90% 29.88 in 10.0 mi Calm Calm - N/A   Clear
4:15 AM 28.2 °F - 25.7 °F 90% 29.88 in 10.0 mi Calm Calm - N/A   Clear
4:35 AM 27.0 °F - 25.0 °F 92% 29.88 in 10.0 mi Calm Calm - N/A   Clear
4:55 AM 27.9 °F - 25.3 °F 90% 29.87 in 10.0 mi Calm Calm - N/A   Clear
5:15 AM 28.0 °F - 25.7 °F 91% 29.88 in 10.0 mi Calm Calm - N/A   Clear
5:35 AM 27.1 °F - 25.0 °F 92% 29.87 in 10.0 mi Calm Calm - N/A   Clear
5:55 AM 26.8 °F - 24.3 °F 90% 29.87 in 10.0 mi Calm Calm - N/A   Clear
6:15 AM 26.2 °F - 24.4 °F 93% 29.87 in 10.0 mi Calm Calm - N/A   Clear
6:35 AM 26.4 °F - 24.3 °F 92% 29.87 in 10.0 mi Calm Calm - N/A   Clear
6:55 AM 26.2 °F 22.1 °F 23.9 °F 91% 29.87 in 10.0 mi SE 3.5 mph - N/A   Clear
7:15 AM 25.3 °F 21.1 °F 23.7 °F 94% 29.88 in 10.0 mi SE 3.5 mph - N/A   Clear
7:35 AM 27.9 °F - 26.2 °F 94% 29.88 in 10.0 mi Calm Calm - N/A   Clear
7:55 AM 29.1 °F 25.4 °F 26.6 °F 90% 29.88 in 10.0 mi SE 3.5 mph - N/A   Clear
8:15 AM 30.0 °F - 27.5 °F 90% 29.88 in 10.0 mi Calm Calm - N/A   Clear
8:35 AM 32.7 °F 27.3 °F 30.0 °F 90% 29.88 in 10.0 mi SSE 5.8 mph - N/A   Clear
8:55 AM 34.9 °F 28.3 °F 31.3 °F 87% 29.88 in 10.0 mi South 8.1 mph - N/A   Clear
9:15 AM 35.8 °F 30.1 °F 31.8 °F 86% 29.88 in 10.0 mi South 6.9 mph - N/A   Clear
9:35 AM 38.3 °F 32.5 °F 33.3 °F 82% 29.87 in 10.0 mi South 8.1 mph - N/A   Clear
9:55 AM 41.0 °F 35.8 °F 34.3 °F 77% 29.86 in 10.0 mi South 8.1 mph - N/A   Clear
10:15 AM 42.6 °F 37.8 °F 34.7 °F 74% 29.85 in 10.0 mi South 8.1 mph - N/A   Clear
10:35 AM 44.6 °F 40.7 °F 35.1 °F 69% 29.86 in 10.0 mi South 6.9 mph - N/A   Clear
10:55 AM 46.4 °F 42.4 °F 35.6 °F 66% 29.86 in 10.0 mi SSW 8.1 mph - N/A   Clear
11:15 AM 47.3 °F - 35.4 °F 63% 29.85 in 10.0 mi South 6.9 mph - N/A   Clear
11:35 AM 49.6 °F - 36.0 °F 59% 29.85 in 10.0 mi South 8.1 mph - N/A   Clear
11:55 AM 51.3 °F - 36.1 °F 56% 29.83 in 10.0 mi South 9.2 mph - N/A   Clear
12:15 PM 52.0 °F - 36.1 °F 55% 29.80 in 10.0 mi South 9.2 mph - N/A   Clear
12:35 PM 53.4 °F - 35.8 °F 51% 29.78 in 10.0 mi SSE 12.7 mph 18.4 mph N/A   Clear
12:55 PM 53.6 °F - 35.8 °F 51% 29.78 in 10.0 mi SSE 16.1 mph - N/A   Clear
1:15 PM 54.5 °F - 36.0 °F 50% 29.77 in 10.0 mi SSE 11.5 mph - N/A   Clear
1:35 PM 55.0 °F - 35.8 °F 48% 29.76 in 10.0 mi SSE 11.5 mph - N/A   Clear
1:55 PM 55.8 °F - 35.8 °F 47% 29.75 in 10.0 mi South 11.5 mph 21.9 mph N/A   Clear
2:15 PM 56.7 °F - 35.8 °F 46% 29.74 in 10.0 mi South 12.7 mph 19.6 mph N/A   Clear
2:35 PM 56.8 °F - 35.8 °F 45% 29.73 in 10.0 mi South 16.1 mph 19.6 mph N/A   Clear
2:55 PM 57.2 °F - 36.3 °F 46% 29.71 in 10.0 mi South 10.4 mph 20.7 mph N/A   Clear
3:15 PM 57.4 °F - 36.7 °F 46% 29.71 in 10.0 mi South 17.3 mph 23.0 mph N/A   Clear
3:35 PM 56.8 °F - 36.7 °F 47% 29.69 in 10.0 mi SSE 13.8 mph - N/A   Clear
3:55 PM 56.7 °F - 37.0 °F 48% 29.67 in 10.0 mi SSE 16.1 mph - N/A   Clear
4:15 PM 56.3 °F - 37.2 °F 49% 29.67 in 10.0 mi SSE 12.7 mph 20.7 mph N/A   Clear
4:35 PM 55.4 °F - 37.0 °F 50% 29.66 in 10.0 mi SSE 11.5 mph - N/A   Clear
4:55 PM 53.8 °F - 37.4 °F 54% 29.67 in 10.0 mi SSE 9.2 mph - N/A   Clear
5:15 PM 52.9 °F - 37.6 °F 56% 29.66 in 10.0 mi SSE 10.4 mph - N/A   Clear
5:35 PM 52.0 °F - 37.6 °F 58% 29.66 in 10.0 mi SSE 10.4 mph - N/A   Clear
5:55 PM 51.4 °F - 37.8 °F 60% 29.67 in 10.0 mi SSE 11.5 mph - N/A   Clear
6:15 PM 50.7 °F - 38.3 °F 62% 29.67 in 10.0 mi SSE 9.2 mph - N/A   Clear
6:35 PM 50.2 °F - 38.7 °F 65% 29.66 in 10.0 mi SE 9.2 mph - N/A   Clear
6:55 PM 49.3 °F - 39.0 °F 68% 29.66 in 10.0 mi SE 10.4 mph - N/A   Clear
7:15 PM 48.4 °F - 39.2 °F 71% 29.66 in 10.0 mi SSE 9.2 mph - N/A   Clear
7:35 PM 48.0 °F - 39.2 °F 72% 29.66 in 10.0 mi SSE 9.2 mph - N/A   Clear
7:55 PM 48.0 °F - 39.7 °F 73% 29.66 in 10.0 mi SSE 12.7 mph - N/A   Clear
8:15 PM 48.4 °F - 40.1 °F 73% 29.65 in 10.0 mi SSE 15.0 mph 20.7 mph N/A   Clear
8:35 PM 48.2 °F - 40.5 °F 75% 29.65 in 10.0 mi SSE 12.7 mph 17.3 mph N/A   Clear
8:55 PM 48.4 °F - 41.0 °F 76% 29.65 in 10.0 mi SSE 10.4 mph - N/A   Clear
9:15 PM 48.2 °F - 41.0 °F 76% 29.64 in 10.0 mi SSE 10.4 mph - N/A   Clear
9:35 PM 48.2 °F - 41.5 °F 78% 29.64 in 10.0 mi SSE 10.4 mph - N/A   Clear
9:55 PM 48.0 °F - 41.9 °F 79% 29.64 in 10.0 mi SSE 9.2 mph - N/A   Clear
10:15 PM 48.0 °F - 42.3 °F 80% 29.63 in 10.0 mi SSE 10.4 mph - N/A   Clear
10:35 PM 48.2 °F - 42.8 °F 82% 29.62 in 10.0 mi SSE 11.5 mph 17.3 mph N/A   Clear
10:55 PM 48.2 °F - 43.0 °F 82% 29.61 in 10.0 mi SSE 13.8 mph - N/A   Clear
11:15 PM 48.2 °F - 43.7 °F 84% 29.60 in 10.0 mi SSE 13.8 mph 19.6 mph N/A   Clear
11:35 PM 48.7 °F - 44.2 °F 84% 29.59 in 10.0 mi SSE 13.8 mph 21.9 mph N/A   Clear
11:55 PM 49.1 °F - 44.6 °F 84% 29.58 in 10.0 mi SSE 12.7 mph 19.6 mph N/A   Clear